Hlavní strana
METAR-TAF:

METAR-TAF

Letiště :

Kuopio, Finsko

zeměpisná šířka: 63-01N, zeměpisná délka: 027-48E, výška: 98 m

Aktuální stav počasí

Zpráva byla vytvořena před 17 minutami, v 04:20 UTC
Západoseverozápadní vítr 8 kt
Teplota -4°C
Vlhkost vzduchu 68%
Tlak 1018 hPa
Viditelnost 10 km a více
Žádná oblačnost pod 1500 m, nevyskytují se cumulonimby.

METAR: EFKU 050420Z AUTO 29008KT CAVOK M04/M09 Q1018

Čas: 07:37 (04:37 UTC)

Předpověď počasí

Zpráva byla vytvořena před 2 hodinami a 15 minutami, v 02:22 UTC
Předpověď platná od 05 v 03 UTC do 06 v 03 UTC
Západní vítr 10 kt
Viditelnost 10 km a více
Žádná oblačnost pod 1500 m, nevyskytují se cumulonimby.
Změna
od 05 v 21 UTC do 05 v 23 UTC
Jihovýchodní vítr 5 kt

TAF: EFKU 050222Z 0503/0603 28010KT CAVOK BECMG 0521/0523 13005KT

Stav a předpovědi počasí z více než 4 000 letišť (zprávy METAR a TAF).

Červené a žluté tečky na mapě představují dostupné meteorologické stanice.

Když kurzor umístíte na tečku, zobrazí se název stanice.

Pak kliknutím zobrazíte stav a předpověď počasí.

Chcete-li změnit mapu, kliknutím na zelené tlačítko se znaménkem +mapu přiblížíte, kliknutím na zelené tlačítko se znaménkem – mapu oddálíte a kliknutím na zelené šipky přejdete na sousední mapy.


METAR-TAF: